TimeAKDT,TemperatureF,Dew PointF,Humidity,Sea Level PressureIn,VisibilityMPH,Wind Direction,Wind SpeedMPH,Gust SpeedMPH,PrecipitationIn,Events,Conditions,WindDirDegrees,DateUTC
12:53 AM,43.0,26.1,51,29.54,10.0,Variable,3.5,-,N/A,,Overcast,0,2013-04-05 08:53:00
1:53 AM,43.0,27.0,53,29.54,10.0,Calm,Calm,-,N/A,,Overcast,0,2013-04-05 09:53:00
2:53 AM,42.1,28.0,58,29.53,10.0,Calm,Calm,-,N/A,,Overcast,0,2013-04-05 10:53:00
3:53 AM,41.0,30.9,67,29.53,10.0,NNE,3.5,-,0.00,Rain,Light Rain,30,2013-04-05 11:53:00
4:53 AM,41.0,34.0,76,29.52,10.0,NNE,6.9,-,0.00,Rain,Light Rain,30,2013-04-05 12:53:00
5:53 AM,39.9,35.1,83,29.52,10.0,Calm,Calm,-,0.00,Rain,Light Rain,0,2013-04-05 13:53:00
6:29 AM,39.2,35.6,87,29.50,10.0,NNE,8.1,-,N/A,,Overcast,30,2013-04-05 14:29:00
6:53 AM,39.9,34.0,79,29.51,10.0,NNE,6.9,-,N/A,,Overcast,30,2013-04-05 14:53:00
7:18 AM,39.2,33.8,81,29.51,10.0,Calm,Calm,-,N/A,,Overcast,0,2013-04-05 15:18:00
7:53 AM,39.9,35.1,83,29.51,9.0,NE,3.5,-,0.00,Rain,Light Rain,40,2013-04-05 15:53:00
8:53 AM,39.9,36.0,86,29.50,10.0,NE,4.6,-,0.01,,Overcast,50,2013-04-05 16:53:00
9:53 AM,39.9,37.0,89,29.51,10.0,Variable,6.9,-,0.00,,Overcast,0,2013-04-05 17:53:00
10:53 AM,41.0,37.0,86,29.50,10.0,NNE,8.1,-,N/A,,Overcast,30,2013-04-05 18:53:00
11:53 AM,42.1,37.9,85,29.51,10.0,NNE,9.2,-,N/A,,Overcast,20,2013-04-05 19:53:00
12:53 PM,44.1,37.9,79,29.51,10.0,NNE,9.2,-,N/A,,Overcast,30,2013-04-05 20:53:00
1:02 PM,44.6,39.2,81,29.50,10.0,NNE,8.1,-,N/A,,Overcast,30,2013-04-05 21:02:00
1:10 PM,44.6,37.4,76,29.51,10.0,NNE,9.2,-,N/A,,Overcast,20,2013-04-05 21:10:00
1:53 PM,44.1,39.0,82,29.51,10.0,NNE,8.1,-,0.00,Rain,Light Rain,30,2013-04-05 21:53:00
2:53 PM,44.1,39.9,85,29.51,10.0,NNE,8.1,-,0.01,,Overcast,30,2013-04-05 22:53:00
3:53 PM,45.0,39.9,82,29.50,10.0,NE,4.6,-,0.00,,Overcast,40,2013-04-05 23:53:00
4:53 PM,44.1,41.0,89,29.49,10.0,Variable,4.6,-,0.01,Rain,Light Rain,0,2013-04-06 00:53:00
5:35 PM,44.6,41.0,87,29.47,10.0,NNE,6.9,-,0.00,,Overcast,20,2013-04-06 01:35:00
5:53 PM,44.1,41.0,89,29.47,10.0,NNE,9.2,-,0.00,,Overcast,20,2013-04-06 01:53:00
6:53 PM,44.1,41.0,89,29.46,10.0,NNE,6.9,-,0.01,,Overcast,30,2013-04-06 02:53:00
7:53 PM,44.1,41.0,89,29.45,10.0,NNE,8.1,-,N/A,,Overcast,30,2013-04-06 03:53:00
8:00 PM,44.6,41.0,87,29.44,10.0,NNE,5.8,-,N/A,,Overcast,30,2013-04-06 04:00:00
8:53 PM,44.1,41.0,89,29.44,10.0,Variable,3.5,-,N/A,,Overcast,0,2013-04-06 04:53:00
9:45 PM,44.6,41.0,87,29.43,10.0,NNE,9.2,-,0.00,Rain,Light Rain,20,2013-04-06 05:45:00
9:53 PM,44.1,41.0,89,29.44,10.0,NNE,8.1,-,0.00,Rain,Light Rain,20,2013-04-06 05:53:00
10:53 PM,44.1,41.0,89,29.42,10.0,Variable,3.5,-,0.00,,Overcast,0,2013-04-06 06:53:00
11:53 PM,45.0,41.0,86,29.40,10.0,NNE,6.9,-,N/A,,Overcast,30,2013-04-06 07:53:00